Weather History for Lancaster, OH

Change the Weather History Date:

Wednesday, November 21, 2012

  Actual Average Record
Temperature  
Mean Temperature 44 °F -  
Max Temperature 61 °F 50 °F 69 °F (1953)
Min Temperature 28 °F 29 °F 9 °F (2014)
Degree Days  
Heating Degree Days 20    
Moisture  
Dew Point 33 °F    
Average Humidity 82    
Maximum Humidity 100    
Minimum Humidity 38    
Precipitation  
Precipitation 0.00 in - - ()
Sea Level Pressure  
Sea Level Pressure 30.21 in    
Wind  
Wind Speed 0 mph (NW)    
Max Wind Speed 5 mph    
Max Gust Speed -    
Visibility 6 miles    
Events Fog    
Averages and records for this station are not official NWS values.
T = Trace of Precipitation, MM = Missing Value Source: NWS Daily Summary

Daily Weather History Graph

Daily Weather History Graph

Search for Another Location

Airport:

Trip Planner

Search our weather history database for the weather conditions in past years. The results will help you decide how hot, cold, wet, or windy it might be!

Date:

Astronomy

Nov. 21, 2012 Rise Set
Actual Time 7:22 AM EST 5:10 PM EST
Civil Twilight 6:53 AM EST 5:39 PM EST
Nautical Twilight 6:20 AM EST 6:12 PM EST
Astronomical Twilight 5:48 AM EST 6:44 PM EST
Moon 1:25 PM EST (11/21) 12:41 AM EST (11/21)
Length of Visible Light 10h 46m
Length of Day
9h 47m
First Quarter, 61% of the Moon is Illuminated
Nov 21
First Quarter
Nov 28
Full
Dec 6
Last Quarter
Dec 13
New
Dec 20
First Quarter

Hourly Weather History & Observations

Time (EST) Temp. Windchill Dew Point Humidity Pressure Visibility Wind Dir Wind Speed Gust Speed Precip Events Conditions
12:53 AM 39.9 °F - 37.0 °F 89% 30.15 in 9.0 mi Calm Calm - N/A   Overcast
1:53 AM 41.0 °F - 37.0 °F 86% 30.14 in 10.0 mi Calm Calm - N/A   Overcast
2:53 AM 39.0 °F - 36.0 °F 89% 30.17 in 9.0 mi Calm Calm - N/A   Overcast
3:53 AM 39.0 °F - 37.0 °F 93% 30.17 in 8.0 mi Calm Calm - N/A   Overcast
4:53 AM 39.0 °F - 36.0 °F 89% 30.18 in 8.0 mi Calm Calm - N/A   Overcast
5:53 AM 33.1 °F - 30.9 °F 92% 30.20 in 4.0 mi Calm Calm - N/A   Clear
6:03 AM 33.8 °F - 32.0 °F 93% 30.18 in 1.5 mi Calm Calm - N/A   Clear
6:06 AM 33.8 °F - 32.0 °F 93% 30.19 in 0.8 mi Calm Calm - N/A   Clear
6:18 AM 33.8 °F - 30.2 °F 87% 30.19 in 0.5 mi Calm Calm - N/A Fog Fog
6:22 AM 32.0 °F - 30.2 °F 93% 30.19 in 1.5 mi Calm Calm - N/A   Clear
6:24 AM 30.2 °F - 30.2 °F 100% 30.19 in 4.0 mi Calm Calm - N/A   Clear
6:32 AM 30.2 °F - 28.4 °F 93% 30.19 in 2.0 mi Calm Calm - N/A   Partly Cloudy
6:35 AM 30.2 °F - 28.4 °F 93% 30.19 in 1.0 mi Calm Calm - N/A   Mist
6:42 AM 30.2 °F - 28.4 °F 93% 30.19 in 0.2 mi Calm Calm - N/A Fog Light Freezing Fog
6:53 AM 30.0 °F - 28.9 °F 96% 30.21 in 0.5 mi Calm Calm - N/A Fog Light Freezing Fog
6:55 AM 28.4 °F - 28.4 °F 100% 30.19 in 1.8 mi Calm Calm - N/A   Mostly Cloudy
7:02 AM 30.2 °F - 28.4 °F 93% 30.20 in 4.0 mi Calm Calm - N/A   Scattered Clouds
7:12 AM 32.0 °F - 30.2 °F 93% 30.20 in 1.8 mi Calm Calm - N/A   Partly Cloudy
7:18 AM 30.2 °F - 30.2 °F 100% 30.20 in 0.8 mi Calm Calm - N/A   Mist
7:42 AM 30.2 °F - 28.4 °F 93% 30.21 in 0.2 mi Calm Calm - N/A Fog Light Freezing Fog
7:53 AM 32.0 °F - 30.9 °F 96% 30.24 in 2.0 mi Calm Calm - N/A   Partly Cloudy
8:00 AM 32.0 °F - 30.2 °F 93% 30.22 in 4.0 mi Calm Calm - N/A   Partly Cloudy
8:53 AM 39.0 °F - 36.0 °F 89% 30.24 in 6.0 mi Calm Calm - N/A   Clear
9:53 AM 50.0 °F - 39.0 °F 66% 30.26 in 7.0 mi Calm Calm - N/A   Clear
10:53 AM 55.9 °F - 39.0 °F 53% 30.25 in 8.0 mi Calm Calm - N/A   Clear
11:53 AM 57.0 °F - 37.0 °F 47% 30.24 in 10.0 mi Calm Calm - N/A   Clear
12:53 PM 57.9 °F - 36.0 °F 44% 30.22 in 10.0 mi Calm Calm - N/A   Clear
1:53 PM 60.1 °F - 36.0 °F 41% 30.21 in 10.0 mi Variable 4.6 mph - N/A   Clear
2:53 PM 61.0 °F - 35.1 °F 38% 30.21 in 10.0 mi North 3.5 mph - N/A   Clear
3:53 PM 61.0 °F - 35.1 °F 38% 30.21 in 10.0 mi Calm Calm - N/A   Clear
4:53 PM 55.9 °F - 36.0 °F 47% 30.21 in 10.0 mi Calm Calm - N/A   Clear
5:53 PM 43.0 °F - 35.1 °F 74% 30.23 in 10.0 mi Calm Calm - N/A   Clear
6:53 PM 37.9 °F - 33.1 °F 83% 30.24 in 10.0 mi Calm Calm - N/A   Clear
7:53 PM 37.9 °F - 33.1 °F 83% 30.24 in 10.0 mi Calm Calm - N/A   Clear
8:53 PM 34.0 °F - 30.9 °F 89% 30.23 in 10.0 mi Calm Calm - N/A   Clear
9:53 PM 32.0 °F - 30.9 °F 96% 30.24 in 10.0 mi Calm Calm - N/A   Clear
10:53 PM 32.0 °F 28.7 °F 28.9 °F 88% 30.24 in 10.0 mi West 3.5 mph - N/A   Clear
11:53 PM 30.9 °F - 28.9 °F 92% 30.23 in 10.0 mi Calm Calm - N/A   Clear